ACA150 CYYC-CYYZ

Flight info

Callsign ACA150
Flight time N/A
Altitude 35000
Route STAMP2/35R LOMLO Q961 DAPOP DCT UDBOX DCT YQT DCT OTNIK BOXUM7
Aircraft A321/M-SDE3FGHIRWY/LB1

Departure

Time 2026-05-05 20:45
Airport Calgary International Airport (CYYC)

Arrival

Time N/A
Airport Toronto Pearson International Airport (CYYZ)
Time Latitude Longitude Altitude Speed Heading
2026-05-05 20:19 51.12941 -114.00756 3560 ft 0 kts 276°
2026-05-05 20:33 51.12940 -114.00744 3557 ft 4 kts 276°
2026-05-05 20:33 51.12937 -114.00701 3556 ft 4 kts 273°
2026-05-05 20:33 51.12939 -114.00662 3553 ft 4 kts 236°
2026-05-05 20:33 51.12946 -114.00649 3556 ft 0 kts 200°
2026-05-05 20:37 51.12945 -114.00650 3558 ft 2 kts 200°
2026-05-05 20:37 51.12913 -114.00658 3559 ft 12 kts 185°
2026-05-05 20:37 51.12761 -114.00643 3559 ft 14 kts 178°
2026-05-05 20:37 51.12673 -114.00642 3557 ft 11 kts 180°
2026-05-05 20:38 51.12616 -114.00594 3558 ft 8 kts 119°
2026-05-05 20:38 51.12614 -114.00520 3559 ft 7 kts 91°
2026-05-05 20:38 51.12613 -114.00366 3559 ft 19 kts 91°
2026-05-05 20:38 51.12610 -114.00130 3559 ft 20 kts 86°
2026-05-05 20:39 51.12613 -113.99919 3559 ft 18 kts 91°
2026-05-05 20:39 51.12611 -113.99793 3559 ft 8 kts 91°
2026-05-05 20:39 51.12611 -113.99709 3559 ft 7 kts 90°
2026-05-05 20:39 51.12611 -113.99663 3559 ft 6 kts 89°
2026-05-05 20:40 51.12612 -113.99479 3560 ft 16 kts 89°
2026-05-05 20:40 51.12613 -113.99380 3560 ft 11 kts 90°
2026-05-05 20:40 51.12606 -113.99354 3559 ft 1 kts 144°
2026-05-05 20:40 51.12581 -113.99335 3556 ft 0 kts 153°
2026-05-05 20:41 51.12499 -113.99308 3559 ft 20 kts 179°
2026-05-05 20:41 51.12370 -113.99307 3558 ft 17 kts 180°
2026-05-05 20:41 51.12238 -113.99308 3559 ft 25 kts 180°
2026-05-05 20:41 51.12069 -113.99308 3560 ft 21 kts 178°
2026-05-05 20:42 51.11937 -113.99307 3560 ft 18 kts 180°
2026-05-05 20:42 51.11824 -113.99308 3558 ft 15 kts 180°
2026-05-05 20:42 51.11728 -113.99309 3561 ft 12 kts 180°
2026-05-05 20:42 51.11651 -113.99309 3561 ft 10 kts 179°
2026-05-05 20:43 51.11587 -113.99308 3561 ft 8 kts 179°
2026-05-05 20:43 51.11544 -113.99276 3559 ft 6 kts 124°
2026-05-05 20:43 51.11535 -113.99236 3562 ft 4 kts 92°
2026-05-05 20:43 51.11535 -113.99123 3565 ft 15 kts 86°
2026-05-05 20:44 51.11541 -113.99072 3566 ft 2 kts 70°
2026-05-05 20:44 51.11581 -113.99036 3562 ft 12 kts 356°
2026-05-05 20:44 51.11795 -113.99036 3562 ft 62 kts
2026-05-05 20:44 51.12431 -113.99035 3558 ft 118 kts 360°
2026-05-05 20:45 51.14613 -113.99032 3917 ft 174 kts 360°
2026-05-05 20:45 51.15827 -113.99066 4721 ft 175 kts 358°
2026-05-05 20:45 51.17061 -113.99154 5064 ft 184 kts 358°
2026-05-05 20:46 51.18398 -113.99254 5207 ft 200 kts 358°
2026-05-05 20:46 51.19845 -113.99352 5338 ft 217 kts 359°
2026-05-05 20:46 51.21383 -113.98905 5433 ft 239 kts 27°
2026-05-05 20:46 51.22616 -113.97026 5787 ft 257 kts 61°
2026-05-05 20:47 51.22973 -113.94195 6371 ft 269 kts 90°
2026-05-05 20:47 51.22819 -113.91193 7013 ft 274 kts 94°
2026-05-05 20:47 51.22588 -113.88155 7644 ft 278 kts 94°
2026-05-05 20:47 51.22332 -113.85076 8278 ft 282 kts 95°
2026-05-05 20:48 51.22077 -113.82000 8926 ft 285 kts 95°
2026-05-05 20:48 51.21826 -113.78851 9574 ft 288 kts 94°
2026-05-05 20:48 51.21580 -113.75660 10194 ft 292 kts 94°
2026-05-05 20:48 51.21329 -113.72330 10362 ft 312 kts 94°
2026-05-05 20:49 51.21064 -113.68781 10492 ft 332 kts 94°
2026-05-05 20:49 51.20785 -113.65034 10637 ft 349 kts 94°
2026-05-05 20:49 51.20492 -113.61152 11058 ft 356 kts 94°
2026-05-05 20:49 51.20191 -113.57203 11595 ft 360 kts 94°
2026-05-05 20:50 51.19887 -113.53222 12144 ft 364 kts 93°
2026-05-05 20:50 51.19580 -113.49199 12689 ft 367 kts 93°
2026-05-05 20:50 51.19269 -113.45139 13237 ft 371 kts 92°
2026-05-05 20:50 51.18952 -113.41047 13852 ft 373 kts 93°
2026-05-05 20:51 51.18631 -113.36937 14373 ft 375 kts 92°
2026-05-05 20:51 51.18306 -113.32806 14846 ft 377 kts 92°
2026-05-05 20:51 51.17978 -113.28637 15297 ft 381 kts 91°
2026-05-05 20:51 51.17648 -113.24435 15748 ft 384 kts 90°
2026-05-05 20:52 51.17316 -113.20201 16185 ft 387 kts 90°
2026-05-05 20:52 51.16980 -113.15938 16633 ft 389 kts 89°
2026-05-05 20:52 51.16639 -113.11645 17071 ft 392 kts 89°
2026-05-05 20:52 51.16294 -113.07323 17498 ft 395 kts 88°
2026-05-05 20:53 51.15947 -113.02967 17900 ft 397 kts 88°
2026-05-05 20:53 51.15597 -112.98586 18278 ft 400 kts 87°
2026-05-05 20:53 51.15239 -112.94179 18629 ft 403 kts 87°
2026-05-05 20:53 51.14874 -112.89746 18931 ft 405 kts 87°
2026-05-05 20:54 51.14506 -112.85304 19319 ft 405 kts 88°
2026-05-05 20:54 51.14134 -112.80849 19670 ft 406 kts 88°
2026-05-05 20:54 51.13762 -112.76381 19988 ft 408 kts 87°
2026-05-05 20:54 51.13390 -112.71898 20300 ft 409 kts 87°
2026-05-05 20:55 51.13017 -112.67403 20610 ft 411 kts 87°
2026-05-05 20:55 51.12640 -112.62878 20923 ft 413 kts 86°
2026-05-05 20:55 51.12264 -112.58402 21247 ft 415 kts 86°
2026-05-05 20:55 51.11878 -112.53845 21565 ft 417 kts 86°
2026-05-05 20:56 51.11488 -112.49265 21883 ft 419 kts 86°
2026-05-05 20:56 51.11093 -112.44664 22207 ft 421 kts 86°
2026-05-05 20:56 51.10697 -112.40043 22531 ft 422 kts 86°
2026-05-05 20:56 51.10292 -112.35343 22866 ft 424 kts 85°
2026-05-05 20:57 51.09892 -112.30739 23267 ft 426 kts 85°
2026-05-05 20:57 51.09481 -112.26067 23638 ft 428 kts 85°
2026-05-05 20:57 51.09065 -112.21371 23930 ft 430 kts 85°
2026-05-05 20:57 51.08647 -112.16645 24174 ft 432 kts 85°
2026-05-05 20:58 51.08226 -112.11908 24418 ft 434 kts 85°
2026-05-05 20:58 51.07802 -112.07147 24679 ft 436 kts 85°
2026-05-05 20:58 51.07376 -112.02373 24923 ft 438 kts 85°
2026-05-05 20:58 51.06947 -111.97570 25162 ft 440 kts 85°
2026-05-05 20:59 51.06514 -111.92748 25392 ft 441 kts 85°
2026-05-05 20:59 51.06080 -111.87910 25634 ft 443 kts 85°
2026-05-05 20:59 51.05642 -111.83044 25866 ft 445 kts 85°
2026-05-05 20:59 51.05198 -111.78165 26173 ft 447 kts 85°
2026-05-05 21:00 51.04747 -111.73259 26376 ft 450 kts 86°
2026-05-05 21:00 51.04290 -111.68326 26595 ft 452 kts 86°
2026-05-05 21:00 51.03827 -111.63374 26824 ft 454 kts 86°
2026-05-05 21:00 51.03358 -111.58402 27049 ft 456 kts 86°
2026-05-05 21:01 51.02884 -111.53408 27272 ft 458 kts 86°
2026-05-05 21:01 51.02409 -111.48403 27499 ft 460 kts 86°
2026-05-05 21:01 51.01933 -111.43370 27716 ft 461 kts 86°
2026-05-05 21:01 51.01459 -111.38331 27951 ft 463 kts 86°
2026-05-05 21:02 51.00982 -111.33267 28156 ft 464 kts 86°
2026-05-05 21:02 51.00502 -111.28195 28346 ft 466 kts 86°
2026-05-05 21:02 51.00016 -111.23107 28594 ft 467 kts 86°
2026-05-05 21:02 50.99520 -111.18001 28794 ft 468 kts 86°
2026-05-05 21:03 50.99019 -111.12897 28976 ft 469 kts 86°
2026-05-05 21:03 50.98515 -111.07781 29132 ft 470 kts 86°
2026-05-05 21:03 50.98009 -111.02661 29362 ft 470 kts 86°
2026-05-05 21:03 50.97500 -110.97546 29575 ft 469 kts 85°
2026-05-05 21:04 50.96989 -110.92432 29775 ft 469 kts 85°
2026-05-05 21:04 50.96476 -110.87319 29985 ft 469 kts 85°
2026-05-05 21:04 50.95962 -110.82217 30193 ft 468 kts 85°
2026-05-05 21:04 50.95450 -110.77123 30378 ft 468 kts 85°
2026-05-05 21:05 50.94940 -110.72030 30546 ft 468 kts 85°
2026-05-05 21:05 50.94426 -110.66936 30787 ft 467 kts 85°
2026-05-05 21:05 50.93910 -110.61858 31022 ft 465 kts 85°
2026-05-05 21:05 50.93393 -110.56808 31224 ft 464 kts 85°
2026-05-05 21:06 50.92876 -110.51762 31446 ft 463 kts 86°
2026-05-05 21:06 50.92359 -110.46720 31630 ft 463 kts 86°
2026-05-05 21:06 50.91839 -110.41685 31805 ft 463 kts 86°
2026-05-05 21:06 50.91313 -110.36659 31993 ft 462 kts 86°
2026-05-05 21:07 50.90787 -110.31638 32172 ft 462 kts 86°
2026-05-05 21:07 50.90262 -110.26624 32354 ft 461 kts 86°
2026-05-05 21:07 50.89733 -110.21608 32528 ft 461 kts 86°
2026-05-05 21:07 50.89209 -110.16671 32702 ft 461 kts 86°
2026-05-05 21:08 50.88674 -110.11670 32938 ft 461 kts 88°
2026-05-05 21:08 50.88135 -110.06666 33096 ft 461 kts 88°
2026-05-05 21:08 50.87597 -110.01667 33260 ft 460 kts 88°
2026-05-05 21:08 50.87268 -109.96694 33405 ft 451 kts 82°
2026-05-05 21:09 50.87054 -109.91733 33566 ft 451 kts 82°
2026-05-05 21:09 50.86838 -109.86792 33729 ft 451 kts 82°
2026-05-05 21:09 50.86618 -109.81834 33888 ft 451 kts 82°
2026-05-05 21:09 50.86397 -109.76889 34049 ft 450 kts 82°
2026-05-05 21:10 50.86172 -109.71947 34204 ft 450 kts 82°
2026-05-05 21:10 50.85943 -109.67005 34344 ft 450 kts 82°
2026-05-05 21:10 50.85712 -109.62067 34516 ft 450 kts 82°
2026-05-05 21:10 50.85480 -109.57131 34640 ft 450 kts 85°
2026-05-05 21:11 50.85246 -109.52190 34752 ft 450 kts 85°
2026-05-05 21:11 50.85008 -109.47248 34867 ft 451 kts 85°
2026-05-05 21:11 50.84768 -109.42299 34984 ft 451 kts 85°
2026-05-05 21:11 50.84526 -109.37359 35117 ft 450 kts 85°
2026-05-05 21:12 50.84283 -109.32420 35223 ft 451 kts 85°
2026-05-05 21:12 50.84039 -109.27460 35237 ft 453 kts 85°
2026-05-05 21:12 50.83550 -109.17519 35237 ft 454 kts 85°
2026-05-05 21:13 50.83044 -109.07565 35262 ft 454 kts 86°
2026-05-05 21:13 50.82520 -108.97598 35237 ft 455 kts 87°
2026-05-05 21:14 50.81993 -108.87616 35234 ft 455 kts 87°
2026-05-05 21:14 50.81462 -108.77643 35237 ft 456 kts 87°
2026-05-05 21:15 50.80923 -108.67726 35236 ft 456 kts 87°
2026-05-05 21:15 50.80377 -108.57743 35239 ft 456 kts 87°
2026-05-05 21:16 50.79815 -108.47762 35239 ft 456 kts 88°
2026-05-05 21:16 50.79234 -108.37773 35238 ft 456 kts 88°
2026-05-05 21:17 50.78654 -108.27781 35233 ft 456 kts 88°
2026-05-05 21:17 50.78073 -108.17789 35232 ft 457 kts 88°
2026-05-05 21:18 50.77480 -108.07803 35270 ft 457 kts 88°
2026-05-05 21:18 50.76872 -107.97821 35219 ft 456 kts 89°
2026-05-05 21:19 50.76256 -107.87855 35206 ft 456 kts 89°
2026-05-05 21:19 50.75640 -107.77878 35215 ft 457 kts 89°
2026-05-05 21:20 50.75015 -107.67893 35201 ft 457 kts 89°
2026-05-05 21:20 50.74376 -107.57909 35219 ft 457 kts 89°
2026-05-05 21:21 50.73732 -107.47986 35241 ft 458 kts 90°
2026-05-05 21:21 50.73074 -107.37998 35222 ft 458 kts 90°
2026-05-05 21:22 50.72402 -107.27944 35225 ft 458 kts 90°
2026-05-05 21:22 50.71728 -107.18027 35226 ft 458 kts 90°
2026-05-05 21:23 50.71043 -107.08044 35216 ft 457 kts 90°
2026-05-05 21:23 50.70356 -106.98074 35235 ft 457 kts 91°
2026-05-05 21:24 50.69665 -106.88114 35226 ft 457 kts 91°
2026-05-05 21:24 50.68962 -106.78159 35219 ft 457 kts 91°
2026-05-05 21:25 50.68240 -106.68210 35215 ft 457 kts 91°
2026-05-05 21:25 50.67516 -106.58266 35213 ft 457 kts 91°
2026-05-05 21:26 50.66786 -106.48326 35232 ft 457 kts 91°
2026-05-05 21:26 50.66044 -106.38390 35217 ft 456 kts 91°
2026-05-05 21:27 50.65301 -106.28470 35219 ft 456 kts 92°
2026-05-05 21:27 50.64548 -106.18562 35208 ft 455 kts 92°
2026-05-05 21:28 50.63916 -106.10331 35201 ft 455 kts 92°
2026-05-05 21:28 50.63142 -106.00430 35215 ft 456 kts 92°
2026-05-05 21:29 50.62362 -105.90530 35200 ft 455 kts 92°
2026-05-05 21:29 50.61578 -105.80632 35185 ft 456 kts 92°
2026-05-05 21:30 50.60780 -105.70732 35179 ft 456 kts 92°
2026-05-05 21:30 50.59982 -105.60906 35173 ft 456 kts 92°
2026-05-05 21:31 50.59167 -105.50956 35198 ft 455 kts 92°
2026-05-05 21:31 50.58347 -105.41088 35185 ft 454 kts 93°
2026-05-05 21:32 50.57518 -105.31236 35182 ft 454 kts 93°
2026-05-05 21:32 50.56685 -105.21463 35178 ft 454 kts 93°
2026-05-05 21:33 50.55844 -105.11615 35177 ft 455 kts 93°
2026-05-05 21:33 50.54995 -105.01757 35198 ft 455 kts 93°
2026-05-05 21:34 50.54128 -104.91897 35145 ft 455 kts 93°
2026-05-05 21:34 50.53254 -104.82047 35126 ft 455 kts 93°
2026-05-05 21:35 50.52385 -104.72213 35112 ft 454 kts 93°
2026-05-05 21:35 50.51503 -104.62382 35108 ft 454 kts 94°
2026-05-05 21:36 50.50608 -104.52559 35112 ft 454 kts 94°
2026-05-05 21:36 50.49705 -104.42735 35134 ft 454 kts 94°
2026-05-05 21:37 50.48793 -104.32917 35133 ft 455 kts 94°
2026-05-05 21:37 50.47874 -104.23094 35141 ft 455 kts 94°
2026-05-05 21:38 50.46945 -104.13263 35146 ft 456 kts 94°
2026-05-05 21:38 50.46008 -104.03423 35147 ft 456 kts 94°
2026-05-05 21:39 50.45061 -103.93582 35157 ft 456 kts 94°
2026-05-05 21:39 50.44108 -103.83738 35151 ft 457 kts 94°
2026-05-05 21:40 50.43141 -103.73892 35151 ft 457 kts 95°
2026-05-05 21:40 50.42162 -103.64050 35147 ft 457 kts 95°
2026-05-05 21:41 50.41177 -103.54218 35137 ft 457 kts 95°
2026-05-05 21:41 50.40196 -103.44378 35134 ft 457 kts 95°
2026-05-05 21:42 50.39210 -103.34614 35138 ft 457 kts 95°
2026-05-05 21:42 50.38205 -103.24778 35132 ft 457 kts 95°
2026-05-05 21:43 50.37190 -103.14946 35133 ft 457 kts 95°
2026-05-05 21:43 50.36162 -103.05111 35128 ft 457 kts 95°
2026-05-05 21:44 50.35128 -102.95282 35146 ft 458 kts 95°
2026-05-05 21:44 50.34089 -102.85451 35134 ft 458 kts 96°
2026-05-05 21:45 50.33040 -102.75615 35126 ft 458 kts 96°
2026-05-05 21:45 50.31982 -102.65794 35125 ft 458 kts 96°
2026-05-05 21:46 50.30918 -102.55972 35126 ft 458 kts 96°
2026-05-05 21:46 50.29848 -102.46160 35135 ft 458 kts 96°
2026-05-05 21:47 50.28763 -102.36349 35131 ft 458 kts 96°
2026-05-05 21:47 50.27669 -102.26542 35128 ft 458 kts 96°
2026-05-05 21:48 50.26568 -102.16733 35126 ft 458 kts 96°
2026-05-05 21:48 50.25464 -102.06925 35125 ft 458 kts 96°
2026-05-05 21:49 50.24347 -101.97125 35130 ft 458 kts 97°
2026-05-05 21:49 50.23218 -101.87316 35118 ft 459 kts 97°
2026-05-05 21:50 50.22082 -101.77497 35114 ft 460 kts 97°
2026-05-05 21:50 50.20931 -101.67668 35115 ft 460 kts 97°
2026-05-05 21:51 50.19779 -101.57839 35112 ft 460 kts 97°
2026-05-05 21:51 50.18612 -101.48020 35128 ft 460 kts 97°
2026-05-05 21:52 50.16841 -101.33199 35104 ft 468 kts 97°
2026-05-05 21:53 50.15638 -101.23171 35101 ft 473 kts 98°
2026-05-05 21:53 50.14413 -101.13122 35098 ft 477 kts 98°
2026-05-05 21:54 50.13167 -101.02936 35112 ft 480 kts 98°
2026-05-05 21:54 50.11902 -100.92696 35098 ft 482 kts 98°
2026-05-05 21:55 50.10625 -100.82429 35097 ft 484 kts 98°
2026-05-05 21:55 50.09333 -100.72136 35105 ft 484 kts 99°
2026-05-05 21:56 50.08026 -100.61849 35111 ft 485 kts 99°
2026-05-05 21:56 50.06711 -100.51561 35126 ft 485 kts 99°
2026-05-05 21:57 50.05394 -100.41272 35119 ft 485 kts 99°
2026-05-05 21:57 50.04073 -100.30991 35116 ft 485 kts 99°
2026-05-05 21:58 50.02736 -100.20702 35117 ft 485 kts 99°
2026-05-05 21:58 50.01383 -100.10434 35116 ft 485 kts 99°
2026-05-05 21:59 50.00024 -100.00175 35126 ft 485 kts 99°
2026-05-05 21:59 49.98771 -99.89886 35114 ft 484 kts 98°
2026-05-05 22:00 49.97611 -99.79566 35097 ft 485 kts 98°
2026-05-05 22:00 49.96434 -99.69251 35097 ft 485 kts 98°
2026-05-05 22:01 49.95219 -99.58938 35100 ft 486 kts 98°
2026-05-05 22:01 49.93985 -99.48620 35101 ft 486 kts 99°
2026-05-05 22:02 49.92742 -99.38370 35102 ft 487 kts 99°
2026-05-05 22:02 49.91489 -99.28042 35101 ft 487 kts 99°
2026-05-05 22:03 49.90230 -99.17709 35095 ft 488 kts 99°
2026-05-05 22:03 49.88956 -99.07380 35115 ft 488 kts 99°
2026-05-05 22:04 49.87677 -98.97055 35106 ft 488 kts 99°
2026-05-05 22:04 49.86391 -98.86726 35107 ft 488 kts 99°
2026-05-05 22:05 49.85099 -98.76401 35100 ft 489 kts 99°
2026-05-05 22:05 49.83790 -98.66058 35095 ft 490 kts 99°
2026-05-05 22:06 49.82461 -98.55702 35100 ft 490 kts 99°
2026-05-05 22:06 49.81127 -98.45344 35099 ft 491 kts 99°
2026-05-05 22:07 49.79786 -98.34997 35074 ft 491 kts 100°
2026-05-05 22:07 49.78433 -98.24645 35074 ft 491 kts 100°
2026-05-05 22:08 49.77063 -98.14297 35094 ft 491 kts 100°
2026-05-05 22:08 49.75779 -98.04580 35091 ft 491 kts 99°
2026-05-05 22:09 49.74398 -97.94224 35092 ft 492 kts 100°
2026-05-05 22:09 49.73000 -97.83864 35094 ft 493 kts 100°
2026-05-05 22:10 49.71601 -97.73563 35092 ft 493 kts 100°
2026-05-05 22:10 49.70180 -97.63136 35101 ft 493 kts 100°
2026-05-05 22:11 49.68771 -97.52836 35080 ft 494 kts 100°
2026-05-05 22:11 49.67342 -97.42468 35064 ft 494 kts 101°
2026-05-05 22:12 49.65894 -97.32104 35058 ft 494 kts 101°
2026-05-05 22:12 49.64442 -97.21739 35058 ft 494 kts 101°
2026-05-05 22:13 49.62984 -97.11379 35067 ft 494 kts 101°
2026-05-05 22:13 49.61511 -97.01023 35063 ft 494 kts 101°
2026-05-05 22:14 49.60024 -96.90695 35063 ft 494 kts 101°
2026-05-05 22:14 49.58535 -96.80364 35054 ft 494 kts 101°
2026-05-05 22:15 49.57040 -96.70047 35065 ft 494 kts 101°
2026-05-05 22:15 49.55789 -96.61473 35052 ft 493 kts 101°
2026-05-05 22:16 49.54274 -96.51161 35043 ft 494 kts 102°
2026-05-05 22:16 49.52509 -96.39176 35039 ft 494 kts 102°
2026-05-05 22:17 49.51215 -96.30543 35038 ft 494 kts 102°
2026-05-05 22:17 49.49659 -96.20240 35039 ft 495 kts 102°
2026-05-05 22:18 49.48108 -96.09932 35034 ft 495 kts 102°
2026-05-05 22:18 49.46557 -95.99698 35031 ft 495 kts 102°
2026-05-05 22:19 49.44985 -95.89397 35025 ft 495 kts 102°
2026-05-05 22:19 49.43401 -95.79109 35032 ft 495 kts 102°
2026-05-05 22:20 49.41806 -95.68818 35023 ft 495 kts 102°
2026-05-05 22:20 49.40204 -95.58525 35020 ft 496 kts 102°
2026-05-05 22:21 49.38590 -95.48231 35000 ft 496 kts 103°
2026-05-05 22:21 49.36964 -95.37947 35003 ft 496 kts 103°
2026-05-05 22:22 49.35334 -95.27659 35016 ft 497 kts 103°
2026-05-05 22:22 49.33690 -95.17372 35015 ft 496 kts 103°
2026-05-05 22:23 49.32032 -95.07101 35009 ft 496 kts 103°
2026-05-05 22:23 49.30377 -94.96832 35005 ft 496 kts 103°
2026-05-05 22:24 49.28718 -94.86642 35010 ft 496 kts 104°
2026-05-05 22:24 49.27041 -94.76383 35006 ft 496 kts 104°
2026-05-05 22:25 49.25354 -94.66140 35004 ft 496 kts 104°
2026-05-05 22:25 49.23651 -94.55903 35003 ft 496 kts 104°
2026-05-05 22:26 49.21942 -94.45665 35001 ft 496 kts 104°
2026-05-05 22:26 49.20233 -94.35429 34974 ft 497 kts 104°
2026-05-05 22:27 49.18505 -94.25196 34973 ft 498 kts 104°
2026-05-05 22:27 49.16759 -94.14958 34978 ft 498 kts 105°
2026-05-05 22:28 49.15016 -94.04719 34976 ft 498 kts 104°
2026-05-05 22:28 49.13262 -93.94483 34980 ft 498 kts 105°
2026-05-05 22:29 49.11490 -93.84254 34975 ft 498 kts 105°
2026-05-05 22:29 49.09706 -93.74028 34977 ft 498 kts 105°
2026-05-05 22:30 49.07930 -93.63885 34973 ft 498 kts 105°
2026-05-05 22:30 49.06135 -93.53676 34973 ft 498 kts 105°
2026-05-05 22:31 49.04333 -93.43472 34969 ft 498 kts 105°
2026-05-05 22:31 49.02523 -93.33273 34953 ft 499 kts 105°
2026-05-05 22:32 49.00696 -93.23074 34946 ft 499 kts 105°
2026-05-05 22:32 48.98863 -93.12869 34945 ft 500 kts 106°
2026-05-05 22:33 48.97016 -93.02660 34950 ft 500 kts 106°
2026-05-05 22:33 48.95157 -92.92454 34943 ft 501 kts 106°
2026-05-05 22:34 48.93294 -92.82241 34945 ft 501 kts 106°
2026-05-05 22:34 48.91420 -92.72037 34942 ft 501 kts 106°
2026-05-05 22:35 48.89538 -92.61830 34949 ft 501 kts 106°
2026-05-05 22:35 48.87639 -92.51637 34948 ft 501 kts 107°
2026-05-05 22:36 48.85725 -92.41453 34940 ft 501 kts 107°
2026-05-05 22:36 48.83817 -92.31278 34940 ft 501 kts 107°
2026-05-05 22:37 48.81904 -92.21101 34933 ft 501 kts 107°
2026-05-05 22:37 48.79972 -92.10936 34936 ft 501 kts 107°
2026-05-05 22:38 48.78025 -92.00780 34929 ft 502 kts 107°
2026-05-05 22:38 48.76090 -91.90685 34926 ft 502 kts 107°
2026-05-05 22:39 48.74144 -91.80609 34927 ft 502 kts 107°
2026-05-05 22:39 48.72175 -91.70469 34928 ft 502 kts 107°
2026-05-05 22:40 48.70318 -91.60954 34921 ft 502 kts 107°
2026-05-05 22:40 48.68658 -91.52487 34919 ft 502 kts 107°
2026-05-05 22:41 48.67279 -91.45491 34921 ft 502 kts 107°
2026-05-05 22:41 48.65443 -91.36194 34915 ft 502 kts 108°
2026-05-05 22:42 48.63779 -91.27786 34899 ft 502 kts 108°
2026-05-05 22:42 48.61774 -91.17719 34889 ft 503 kts 108°
2026-05-05 22:43 48.59738 -91.07590 34889 ft 504 kts 108°
2026-05-05 22:43 48.57702 -90.97530 34893 ft 505 kts 108°
2026-05-05 22:44 48.55650 -90.87397 34900 ft 505 kts 108°
2026-05-05 22:44 48.53591 -90.77263 34891 ft 505 kts 108°
2026-05-05 22:45 48.51512 -90.67121 34887 ft 506 kts 108°
2026-05-05 22:45 48.49425 -90.56988 34890 ft 506 kts 108°
2026-05-05 22:46 48.47331 -90.46854 34884 ft 506 kts 109°
2026-05-05 22:46 48.45220 -90.36725 34890 ft 507 kts 109°
2026-05-05 22:47 48.43108 -90.26603 34865 ft 507 kts 109°
2026-05-05 22:47 48.40987 -90.16471 34858 ft 508 kts 109°
2026-05-05 22:48 48.38840 -90.06340 34865 ft 509 kts 109°
2026-05-05 22:48 48.36686 -89.96202 34867 ft 509 kts 109°
2026-05-05 22:49 48.34547 -89.86130 34867 ft 509 kts 109°
2026-05-05 22:49 48.32377 -89.75988 34859 ft 510 kts 109°
2026-05-05 22:50 48.30191 -89.65854 34853 ft 510 kts 109°
2026-05-05 22:50 48.28004 -89.55721 34846 ft 510 kts 109°
2026-05-05 22:51 48.25798 -89.45601 34840 ft 510 kts 110°
2026-05-05 22:51 48.23300 -89.35655 34842 ft 509 kts 114°
2026-05-05 22:52 48.20454 -89.25946 34819 ft 509 kts 116°
2026-05-05 22:52 48.17546 -89.16268 34822 ft 510 kts 116°
2026-05-05 22:53 48.14717 -89.06521 34825 ft 511 kts 115°
2026-05-05 22:53 48.11917 -88.96736 34831 ft 512 kts 115°
2026-05-05 22:54 48.09110 -88.86952 34833 ft 512 kts 115°
2026-05-05 22:54 48.06278 -88.77182 34837 ft 512 kts 116°
2026-05-05 22:55 48.03432 -88.67423 34851 ft 512 kts 116°
2026-05-05 22:55 48.00564 -88.57688 34841 ft 512 kts 116°
2026-05-05 22:56 47.97693 -88.47951 34827 ft 513 kts 116°
2026-05-05 22:56 47.94812 -88.38208 34832 ft 513 kts 116°
2026-05-05 22:57 47.91926 -88.28460 34833 ft 514 kts 116°
2026-05-05 22:57 47.89052 -88.18775 34835 ft 515 kts 116°
2026-05-05 22:58 47.86121 -88.08970 34850 ft 515 kts 116°
2026-05-05 22:58 47.83214 -87.99304 34852 ft 515 kts 116°
2026-05-05 22:59 47.80284 -87.89581 34858 ft 515 kts 116°
2026-05-05 22:59 47.77344 -87.79859 34840 ft 515 kts 117°
2026-05-05 23:00 47.72909 -87.65284 34844 ft 517 kts 117°
2026-05-05 23:00 47.69947 -87.55552 34847 ft 517 kts 117°
2026-05-05 23:01 47.66964 -87.45834 34858 ft 518 kts 117°
2026-05-05 23:01 47.63957 -87.36123 34860 ft 518 kts 117°
2026-05-05 23:02 47.60954 -87.26413 34858 ft 518 kts 117°
2026-05-05 23:02 47.57953 -87.16694 34867 ft 519 kts 117°
2026-05-05 23:03 47.54953 -87.07061 34834 ft 519 kts 118°
2026-05-05 23:03 47.51916 -86.97363 34834 ft 520 kts 118°
2026-05-05 23:04 47.48870 -86.87666 34842 ft 521 kts 118°
2026-05-05 23:04 47.45810 -86.77962 34849 ft 521 kts 118°
2026-05-05 23:05 47.42738 -86.68262 34853 ft 521 kts 118°
2026-05-05 23:05 47.39658 -86.58569 34862 ft 522 kts 118°
2026-05-05 23:06 47.36570 -86.48877 34865 ft 522 kts 118°
2026-05-05 23:06 47.33479 -86.39192 34868 ft 522 kts 118°
2026-05-05 23:07 47.30898 -86.31156 34848 ft 522 kts 119°
2026-05-05 23:07 47.27773 -86.21488 34838 ft 522 kts 119°
2026-05-05 23:08 47.24108 -86.10139 33713 ft 510 kts 120°
2026-05-05 23:08 47.21126 -86.00906 33858 ft 500 kts 120°
2026-05-05 23:08 47.14974 -85.82145 33873 ft 518 kts 120°
2026-05-05 23:09 47.08644 -85.62915 33855 ft 526 kts 120°
2026-05-05 23:09 46.99058 -85.34046 33907 ft 524 kts 121°
2026-05-05 23:10 46.86193 -84.95809 33980 ft 524 kts 121°
2026-05-05 23:10 46.79659 -84.76616 33840 ft 532 kts 122°
2026-05-05 23:10 46.73083 -84.57398 33694 ft 535 kts 122°
2026-05-05 23:11 46.59786 -84.19034 33815 ft 529 kts 122°
2026-05-05 23:11 46.53092 -83.99913 33931 ft 526 kts 122°
2026-05-05 23:11 46.46383 -83.80884 33990 ft 526 kts 123°
2026-05-05 23:12 46.31169 -83.45133 33720 ft 528 kts 133°
2026-05-05 23:12 46.14243 -83.10894 33687 ft 524 kts 134°
2026-05-05 23:13 46.05718 -82.93779 33845 ft 523 kts 134°
2026-05-05 23:13 45.97161 -82.76691 33938 ft 521 kts 134°
2026-05-05 23:13 45.79975 -82.42762 33943 ft 526 kts 136°
2026-05-05 23:14 45.62652 -82.09001 33717 ft 531 kts 137°
2026-05-05 23:14 45.52544 -81.94786 33647 ft 513 kts 148°
2026-05-05 23:14 45.42263 -81.80942 33708 ft 511 kts 148°
2026-05-05 23:15 45.32173 -81.67477 33863 ft 475 kts 149°
2026-05-05 23:15 45.22401 -81.54638 33971 ft 485 kts 149°
2026-05-05 23:15 45.17458 -81.48156 33736 ft 486 kts 149°
2026-05-05 23:15 45.13337 -81.42685 33843 ft 485 kts 149°
2026-05-05 23:16 45.03482 -81.29744 33829 ft 481 kts 149°
2026-05-05 23:16 44.98548 -81.23341 33490 ft 481 kts 149°
2026-05-05 23:16 44.93635 -81.16956 32962 ft 479 kts 149°
2026-05-05 23:17 44.88724 -81.10554 31393 ft 489 kts 150°
2026-05-05 23:17 44.83803 -81.04149 30479 ft 471 kts 150°
2026-05-05 23:17 44.79001 -80.97922 29205 ft 464 kts 151°
2026-05-05 23:17 44.74293 -80.91866 28033 ft 453 kts 151°
2026-05-05 23:18 44.69687 -80.85953 26897 ft 444 kts 150°
2026-05-05 23:18 44.65173 -80.80168 25817 ft 434 kts 150°
2026-05-05 23:18 44.60761 -80.74517 24785 ft 424 kts 149°
2026-05-05 23:18 44.56484 -80.69028 23918 ft 410 kts 150°
2026-05-05 23:19 44.52320 -80.63727 23010 ft 400 kts 150°
2026-05-05 23:19 44.48262 -80.58574 22210 ft 388 kts 150°
2026-05-05 23:19 44.44277 -80.53536 21355 ft 384 kts 150°
2026-05-05 23:19 44.39417 -80.47377 20347 ft 374 kts 150°
2026-05-05 23:20 44.31804 -80.37753 18671 ft 364 kts 150°
2026-05-05 23:20 44.27356 -80.32155 17633 ft 359 kts 150°
2026-05-05 23:20 44.25509 -80.29829 17288 ft 355 kts 150°
2026-05-05 23:20 44.23654 -80.27492 16992 ft 355 kts 150°
2026-05-05 23:21 44.21830 -80.25194 16590 ft 352 kts 150°
2026-05-05 23:21 44.20045 -80.22946 16190 ft 349 kts 150°
2026-05-05 23:21 44.18245 -80.20689 15780 ft 346 kts 150°
2026-05-05 23:21 44.16459 -80.18457 15395 ft 344 kts 150°
2026-05-05 23:22 44.14686 -80.16242 14996 ft 342 kts 150°
2026-05-05 23:22 44.12922 -80.14037 14609 ft 340 kts 150°
2026-05-05 23:22 44.11173 -80.11847 14224 ft 337 kts 150°
2026-05-05 23:22 44.09431 -80.09668 13828 ft 336 kts 150°
2026-05-05 23:23 44.07699 -80.07506 13401 ft 334 kts 150°
2026-05-05 23:23 44.05983 -80.05365 13069 ft 328 kts 150°
2026-05-05 23:23 44.04303 -80.03260 12737 ft 323 kts 150°
2026-05-05 23:23 44.02643 -80.01184 12482 ft 320 kts 150°
2026-05-05 23:24 44.00918 -79.99332 12220 ft 307 kts 160°
2026-05-05 23:24 43.99119 -79.97750 11963 ft 306 kts 160°
2026-05-05 23:24 43.97324 -79.96168 11643 ft 305 kts 160°
2026-05-05 23:24 43.95537 -79.94592 11212 ft 304 kts 159°
2026-05-05 23:25 43.93758 -79.93018 10761 ft 303 kts 159°
2026-05-05 23:25 43.91984 -79.91445 10296 ft 302 kts 159°
2026-05-05 23:25 43.90218 -79.89881 9911 ft 299 kts 159°
2026-05-05 23:25 43.88469 -79.88336 9506 ft 296 kts 159°
2026-05-05 23:26 43.86775 -79.86829 9376 ft 282 kts 158°
2026-05-05 23:26 43.85161 -79.85386 9241 ft 271 kts 158°
2026-05-05 23:26 43.83701 -79.83729 8999 ft 273 kts 147°
2026-05-05 23:26 43.82331 -79.81929 8671 ft 270 kts 147°
2026-05-05 23:27 43.80975 -79.80149 8327 ft 268 kts 146°
2026-05-05 23:27 43.79623 -79.78377 7967 ft 267 kts 146°
2026-05-05 23:27 43.78277 -79.76618 7634 ft 266 kts 145°
2026-05-05 23:27 43.77035 -79.74719 7367 ft 270 kts 127°
2026-05-05 23:28 43.76467 -79.72218 7034 ft 280 kts 92°
2026-05-05 23:28 43.76892 -79.69605 6585 ft 281 kts 57°
2026-05-05 23:28 43.78149 -79.67665 6105 ft 273 kts 31°
2026-05-05 23:28 43.79612 -79.65936 5768 ft 272 kts 39°
2026-05-05 23:29 43.80904 -79.64057 5509 ft 266 kts 43°
2026-05-05 23:29 43.82098 -79.62181 5262 ft 260 kts 45°
2026-05-05 23:29 43.83272 -79.60310 5002 ft 255 kts 45°
2026-05-05 23:29 43.84426 -79.58484 4746 ft 250 kts 45°
2026-05-05 23:30 43.85515 -79.56640 4472 ft 247 kts 57°
2026-05-05 23:30 43.85990 -79.54368 4102 ft 249 kts 90°
2026-05-05 23:30 43.85570 -79.52103 3723 ft 243 kts 122°
2026-05-05 23:30 43.84489 -79.50367 3352 ft 236 kts 138°
2026-05-05 23:31 43.83293 -79.48850 3064 ft 228 kts 142°
2026-05-05 23:31 43.81936 -79.47920 3066 ft 216 kts 172°
2026-05-05 23:31 43.80480 -79.48056 3009 ft 208 kts 201°
2026-05-05 23:31 43.79285 -79.49103 3006 ft 203 kts 226°
2026-05-05 23:32 43.78318 -79.50513 3009 ft 202 kts 228°
2026-05-05 23:32 43.77360 -79.51920 2869 ft 195 kts 227°
2026-05-05 23:32 43.76471 -79.53219 2652 ft 175 kts 227°
2026-05-05 23:32 43.75679 -79.54373 2424 ft 157 kts 227°
2026-05-05 23:33 43.74955 -79.55429 2213 ft 146 kts 227°
2026-05-05 23:33 43.74267 -79.56433 2019 ft 142 kts 229°
2026-05-05 23:33 43.73597 -79.57409 1822 ft 139 kts 229°
2026-05-05 23:33 43.72932 -79.58379 1641 ft 139 kts 229°
2026-05-05 23:34 43.72266 -79.59348 1443 ft 139 kts 229°
2026-05-05 23:34 43.71595 -79.60317 1247 ft 140 kts 228°
2026-05-05 23:34 43.70913 -79.61285 1033 ft 141 kts 229°
2026-05-05 23:34 43.70238 -79.62272 845 ft 141 kts 230°
2026-05-05 23:35 43.69570 -79.63272 659 ft 141 kts 230°
2026-05-05 23:35 43.68909 -79.64225 570 ft 129 kts 233°